Location: Newark
(43.0000°N, 1.6781°W)
Time: 20:23:55
(UTC+00:00)

N. Korean satellite - Visible Passes

Search period start: 05 March 2021 00:00
Search period end: 15 March 2021 00:00
Orbit: 451 x 502 km, 97.2° (Epoch: 05 March)

Date Brightness Start Highest point End Pass type
(mag) Time Alt. Az. Time Alt. Az. Time Alt. Az.
05 Mar 9.8 04:34:19 10° ENE 04:36:18 14° E 04:38:17 10° SE visible
05 Mar 7.1 06:06:27 10° N 06:09:44 35° WNW 06:13:02 10° SW visible
06 Mar 6.5 05:39:29 10° N 05:43:03 82° WNW 05:46:39 10° SSW visible
07 Mar 7.9 05:12:50 10° NNE 05:16:15 43° E 05:19:43 10° S visible
08 Mar 9.3 04:46:38 10° NE 04:49:22 20° E 04:52:07 10° SE visible
09 Mar 6.7 05:52:27 10° N 05:55:59 54° WNW 05:59:31 10° SSW visible
10 Mar 7.0 05:25:38 10° NNE 05:29:13 65° E 05:32:50 10° S visible
11 Mar 8.7 04:59:10 10° NE 05:02:22 29° E 05:05:34 10° SSE visible
12 Mar 9.8 04:33:22 10° ENE 04:35:24 14° E 04:37:26 10° SE visible
13 Mar 6.5 05:38:28 10° N 05:42:06 83° WNW 05:45:45 10° SSW visible
14 Mar 7.9 05:11:48 10° NNE 05:15:16 42° E 05:18:46 10° S visible
